Tracking 17155 objects as of 28-July-2015
HD Live streaming from Space Station

CZ-2D DEB

Track CZ-2D DEB now!
10-day predictions
CZ-2D DEB is classified as:


NORAD ID: 28742
Int'l Code: 2005-024F
Perigee: 528.8 km
Apogee: 710.0 km
Inclination: 97.6 °
Period: 96.9 minutes
Semi major axis: 6990 km
RCS: 0.0146 m2 (small)
Launch date: July 5, 2005
Source: People's Republic of China (PRC)

Note: This is SATELLITE DEBRIS
Your satellite tracking list
Your tracking list is empty





NASA's NSSDC Master Catalog

Two Line Element Set (TLE):
1 28742U 05024F   15208.72729533  .00002047  00000-0  21031-3 0  9991
2 28742 097.6208 020.0051 0129610 347.4433 012.3562 14.85409464534334

Source of the keplerian elements: AFSPC

N2YO: 272